[[{"header":{"parameterUnit":"m.s-1","parameterCategory":1,"la1":30.2991,"la2":30.254,"lo1":-89.0895,"lo2":-89.0444,"dy":0.0017,"dx":0.0017,"nx":28,"ny":28,"refTime":"2024-04-18T03:00:00:Z","depth":0,"parameterNumber":2,"parameterNumberName":"U-component_of_WINDS"},"data":[0,0,0,0,0,0,0,0,0,0,0,0,0,0,0,0,0,0,0,0,0,0,0,0,0,0,0,0,0,0,0,0,0,0,0,0,0,0,0,0,0,0,0,0,0,0,0,0,0,0,0,0,0,0,0,0,0,0,-1.6566,-1.6566,0,-1.6576,-1.6576,-1.6576,-1.6536,-1.6535,-1.6533,-1.6532,-1.6548,-1.655,-1.6551,0,0,0,0,0,0,0,0,0,0,0,0,0,-1.6516,-1.6518,-1.6566,-1.6566,-1.6566,-1.6576,-1.6576,-1.6576,-1.6536,-1.6534,-1.6533,-1.6532,-1.6548,-1.6549,-1.6551,0,0,0,0,0,0,0,0,0,0,0,0,0,-1.6534,-1.6518,-1.6566,-1.6547,-1.6545,-1.6576,-1.6576,-1.6576,-1.6536,-1.6534,-1.6533,-1.6531,-1.6547,-1.6549,-1.6552,-1.6602,0,0,-1.6559,-1.656,0,0,0,0,0,0,0,0,-1.6533,-1.6535,-1.6549,-1.6548,-1.6546,-1.6553,-1.6565,-1.6585,-1.6537,-1.654,-1.6532,-1.653,-1.6551,-1.6553,-1.6559,-1.6603,-1.6604,-1.6559,-1.656,-1.6561,-1.6562,0,0,0,0,0,0,0,-1.6532,-1.6535,-1.657,-1.655,-1.6548,-1.654,-1.654,-1.6568,-1.6556,-1.6539,-1.6536,-1.6538,-1.655,-1.6557,-1.6559,-1.6604,-1.6559,-1.6561,-1.6562,-1.6563,-1.6692,-1.6694,0,0,0,0,0,0,-1.6532,-1.6534,-1.657,-1.657,-1.6535,-1.6542,-1.6543,-1.6553,-1.6555,-1.6554,-1.654,-1.6536,-1.6554,-1.6557,-1.656,-1.662,-1.6561,-1.6564,-1.6565,-1.669,-1.6692,-1.6694,0,0,0,0,0,0,-1.6531,-1.6536,-1.6569,-1.6551,-1.6555,-1.6545,-1.6556,-1.6554,-1.656,-1.6555,-1.6554,-1.6548,-1.6553,-1.6557,-1.6592,-1.662,-1.6565,-1.6567,-1.6687,-1.669,-1.6693,-1.6741,0,0,0,0,0,0,-1.653,-1.6535,-1.6553,-1.6552,-1.6556,-1.6599,-1.6558,-1.6555,-1.6564,-1.656,-1.6563,-1.6562,-1.6552,-1.6589,-1.6594,-1.6622,-1.6569,-1.6685,-1.6689,-1.6692,-1.6737,-1.6745,-1.6752,0,0,0,0,0,-1.6528,-1.6567,-1.6554,-1.6559,-1.6578,-1.6601,-1.6604,-1.6589,-1.6566,-1.6585,-1.6582,-1.6562,-1.6616,-1.6593,-1.6599,-1.6628,-1.6683,-1.6688,-1.6692,-1.6733,-1.6743,-1.6752,0,0,0,0,0,0,-1.6574,-1.6567,-1.6552,-1.6591,-1.6597,-1.6594,-1.6617,-1.66,-1.6613,-1.6609,-1.6592,-1.6593,-1.6632,-1.6634,-1.6608,-1.6678,-1.6646,-1.6652,-1.6675,-1.6685,-1.6692,-1.6691,-1.657,0,0,0,0,0,-1.6588,-1.6606,-1.6599,-1.6635,-1.6638,-1.6627,-1.6637,-1.6625,-1.6631,-1.6634,-1.6633,-1.6641,-1.666,-1.6672,-1.6689,-1.6737,-1.6738,-1.676,-1.6768,-1.6774,-1.6779,-1.6806,-1.6816,-1.6709,-1.6709,-1.6709,0,0,-1.6618,-1.6616,-1.6629,-1.6644,-1.6646,-1.6667,-1.663,-1.6653,-1.6668,-1.6638,-1.667,-1.6671,-1.6679,-1.672,-1.6739,-1.6723,-1.6809,-1.678,-1.6785,-1.6787,-1.6811,-1.6822,-1.683,-1.6712,-1.6712,-1.6711,0,0,-1.6683,-1.6683,-1.6713,-1.6717,-1.6721,-1.6714,-1.6721,-1.6721,-1.6719,-1.6752,-1.6729,-1.6749,-1.6781,-1.6788,-1.6796,-1.6865,-1.6848,-1.6871,-1.6912,-1.6938,-1.6946,-1.6953,-1.6978,-1.6988,-1.6877,-1.6877,-1.6877,0,-1.672,-1.6748,-1.6731,-1.6755,-1.6763,-1.6735,-1.6766,-1.6771,-1.6782,-1.6789,-1.677,-1.6811,-1.6814,-1.6857,-1.6874,-1.6881,-1.689,-1.687,-1.6946,-1.6953,-1.696,-1.6984,-1.6993,-1.688,-1.6879,-1.6879,-1.6879,0,-1.6795,-1.6815,-1.6838,-1.6847,-1.6858,-1.6886,-1.6874,-1.6888,-1.6876,-1.6871,-1.6906,-1.6909,-1.6926,-1.6936,-1.6925,-1.6978,-1.6968,-1.6948,-1.6916,-1.6973,-1.6995,-1.7004,-1.6884,-1.6883,-1.6882,-1.6881,0,0,-1.6888,-1.6887,-1.6896,-1.69,-1.6903,-1.6919,-1.6947,-1.6962,-1.6974,-1.6984,-1.7007,-1.7036,-1.7017,-1.7026,-1.7016,-1.7039,-1.7094,-1.7016,-1.7016,-1.703,-1.7154,-1.7169,-1.718,-1.7083,-1.7084,-1.7086,-1.7154,0,-1.6952,-1.6996,-1.6982,-1.7028,-1.7047,-1.7021,-1.7045,-1.7051,-1.7048,-1.7066,-1.7063,-1.7083,-1.7057,-1.7063,-1.7084,-1.7083,-1.7119,-1.7078,-1.7106,-1.7107,-1.7104,-1.7191,-1.7206,-1.727,-1.7162,-1.7164,-1.7165,0,-1.7032,-1.7042,-1.709,-1.709,-1.7098,-1.7119,-1.7133,-1.7149,-1.7156,-1.7153,-1.7163,-1.7148,-1.7178,-1.7145,-1.7186,-1.7159,-1.717,-1.7171,-1.7173,-1.7175,-1.7139,-1.7195,-1.729,-1.73,-1.7178,-1.7177,-1.7176,0,-1.7095,-1.7121,-1.7153,-1.7157,-1.7159,-1.7175,-1.7177,-1.7182,-1.7192,-1.7205,-1.7212,-1.7229,-1.7238,-1.7252,-1.7244,-1.7221,-1.7287,-1.7253,-1.7286,-1.7286,-1.73,-1.7299,-1.7398,-1.7308,-1.7308,-1.7307,-1.7307,0,-1.7168,-1.7198,-1.7181,-1.7201,-1.7235,-1.7219,-1.7253,-1.7253,-1.7257,-1.7278,-1.7258,-1.7278,-1.7265,-1.7285,-1.7279,-1.7314,-1.7319,-1.7318,-1.7316,-1.7319,-1.7319,-1.7326,-1.7321,-1.731,-1.7309,-1.7309,-1.7308,0,-1.7244,-1.7234,-1.7267,-1.7265,-1.7266,-1.7291,-1.7291,-1.731,-1.7306,-1.7332,-1.7337,-1.7332,-1.7354,-1.7346,-1.7371,-1.7367,-1.7412,-1.7404,-1.7409,-1.7407,-1.7439,-1.7436,-1.7545,-1.7559,-1.746,-1.7461,-1.7462,0,-1.7291,-1.7313,-1.7314,-1.7325,-1.7328,-1.7347,-1.7357,-1.7343,-1.7355,-1.7366,-1.7384,-1.7404,-1.7419,-1.7457,-1.7456,-1.7475,-1.7468,-1.7505,-1.7471,-1.7474,-1.7469,-1.7467,-1.747,-1.7512,-1.7513,-1.7514,-1.7514,0,-1.7375,-1.7369,-1.7384,-1.7397,-1.741,-1.742,-1.7429,-1.744,-1.7427,-1.7442,-1.7463,-1.7475,-1.75,-1.7521,-1.7538,-1.7542,-1.7527,-1.7525,-1.7534,-1.7537,-1.7539,-1.7539,-1.7427,-1.7523,-1.7522,-1.7521,-1.7521,-1.7521,-1.7438,-1.7457,-1.746,-1.7478,-1.7483,-1.7492,-1.7509,-1.7507,-1.7524,-1.7542,-1.7533,-1.7559,-1.7567,-1.7588,-1.7595,-1.7616,-1.7602,-1.7614,-1.7618,-1.7621,-1.7625,-1.7536,-1.762,-1.7619,-1.7619,-1.7619,-1.7619,0,-1.7521,-1.7522,-1.7538,-1.7551,-1.7565,-1.7548,-1.7557,-1.757,-1.7592,-1.76,-1.7615,-1.7641,-1.7662,-1.7663,-1.7682,-1.7699,-1.7693,-1.7705,-1.7703,-1.7705,-1.7636,-1.7627,-1.771,-1.771,-1.771,-1.771,-1.771,-1.771,-1.7566,-1.7597,-1.7592,-1.7626,-1.7628,-1.7651,-1.7657,-1.7666,-1.7672,-1.7701,-1.7717,-1.7717,-1.7723,-1.7743,-1.7762,-1.7762,-1.777,-1.7785,-1.7783,-1.7719,-1.7709,-1.7701,-1.7692,-1.7787,-1.7787,-1.7849,-1.785,-1.785]},{"header":{"parameterUnit":"m.s-1","parameterCategory":1,"la1":30.2991,"la2":30.254,"lo1":-89.0895,"lo2":-89.0444,"dy":0.0017,"dx":0.0017,"nx":28,"ny":28,"refTime":"2024-04-18T03:00:00:Z","depth":0,"parameterNumber":3,"parameterNumberName":"V-component_of_WINDS"},"data":[0,0,0,0,0,0,0,0,0,0,0,0,0,0,0,0,0,0,0,0,0,0,0,0,0,0,0,0,0,0,0,0,0,0,0,0,0,0,0,0,0,0,0,0,0,0,0,0,0,0,0,0,0,0,0,0,0,0,0.4287,0.4286,0,0.4234,0.4234,0.4233,0.4242,0.4243,0.4244,0.4244,0.419,0.4188,0.4186,0,0,0,0,0,0,0,0,0,0,0,0,0,0.4393,0.4391,0.4287,0.4286,0.4285,0.4235,0.4234,0.4233,0.4242,0.4243,0.4244,0.4245,0.4191,0.4188,0.4186,0,0,0,0,0,0,0,0,0,0,0,0,0,0.4344,0.439,0.4287,0.4283,0.4283,0.4235,0.4234,0.4233,0.4241,0.4243,0.4244,0.4245,0.4192,0.4189,0.4185,0.4137,0,0,0.4175,0.4173,0,0,0,0,0,0,0,0,0.4347,0.4341,0.4285,0.4284,0.4283,0.4246,0.4252,0.4201,0.4241,0.4257,0.4245,0.4246,0.4208,0.4203,0.419,0.4134,0.4132,0.4175,0.4172,0.4171,0.417,0,0,0,0,0,0,0,0.4351,0.4343,0.4266,0.4284,0.4283,0.4284,0.4279,0.4242,0.4225,0.4256,0.4256,0.425,0.4207,0.4194,0.4189,0.4131,0.4175,0.4172,0.4169,0.4168,0.4034,0.4032,0,0,0,0,0,0,0.4355,0.4346,0.4268,0.4264,0.4319,0.4281,0.4275,0.4256,0.4226,0.4222,0.4249,0.4251,0.4199,0.4193,0.4187,0.4129,0.4171,0.4168,0.4166,0.4035,0.4033,0.4032,0,0,0,0,0,0,0.4357,0.4348,0.427,0.4305,0.4295,0.4278,0.4257,0.4255,0.4241,0.4221,0.4218,0.4238,0.42,0.4192,0.415,0.4127,0.4166,0.4163,0.4037,0.4035,0.4033,0.4012,0,0,0,0,0,0,0.436,0.4349,0.433,0.4305,0.4293,0.4233,0.4255,0.4253,0.4235,0.4237,0.4209,0.4206,0.42,0.4155,0.4146,0.4123,0.416,0.4039,0.4036,0.4033,0.4014,0.4009,0.4004,0,0,0,0,0,0.4364,0.4326,0.4329,0.432,0.427,0.4232,0.4225,0.4219,0.4233,0.4214,0.4202,0.4207,0.4131,0.415,0.4141,0.4116,0.404,0.4037,0.4033,0.4016,0.401,0.4005,0,0,0,0,0,0,0.4349,0.4323,0.4326,0.4279,0.4257,0.4233,0.4209,0.4212,0.4186,0.4189,0.4182,0.4176,0.4133,0.412,0.4142,0.4068,0.4088,0.4082,0.4078,0.4072,0.4067,0.4071,0.4158,0,0,0,0,0,0.434,0.4312,0.429,0.4251,0.424,0.4226,0.4209,0.4207,0.4184,0.4175,0.4159,0.4137,0.4108,0.4089,0.4062,0.4013,0.4007,0.3991,0.3986,0.3982,0.3978,0.3951,0.3944,0.402,0.4021,0.4021,0,0,0.4322,0.4304,0.4286,0.4247,0.423,0.4201,0.4219,0.4186,0.4164,0.417,0.4129,0.4117,0.4092,0.4046,0.4025,0.4034,0.3955,0.3978,0.3975,0.3972,0.3947,0.3939,0.3933,0.4018,0.4019,0.4019,0,0,0.4273,0.4257,0.4222,0.4205,0.418,0.4171,0.4163,0.4138,0.413,0.4089,0.4093,0.4066,0.4017,0.3999,0.3983,0.3928,0.3932,0.3919,0.3893,0.3868,0.3862,0.3856,0.3837,0.383,0.3915,0.3915,0.3915,0,0.4254,0.4209,0.4204,0.4171,0.4154,0.4159,0.4123,0.4107,0.4074,0.4061,0.4072,0.401,0.3994,0.3944,0.3931,0.3918,0.3908,0.3922,0.3863,0.3857,0.3852,0.3834,0.3826,0.3913,0.3913,0.3914,0.3914,0,0.4186,0.4155,0.413,0.4099,0.4078,0.4045,0.4034,0.4015,0.4014,0.4004,0.3962,0.3942,0.3911,0.3899,0.3897,0.3849,0.3855,0.3865,0.3884,0.3844,0.3826,0.3819,0.3911,0.3912,0.3912,0.3913,0,0,0.4126,0.4092,0.4083,0.4069,0.4041,0.4017,0.3984,0.3953,0.3937,0.3914,0.3885,0.3843,0.3852,0.3834,0.3831,0.3808,0.3766,0.382,0.382,0.3811,0.3711,0.3704,0.3696,0.3769,0.3768,0.3766,0.3713,0,0.4075,0.4016,0.4011,0.3958,0.3929,0.3933,0.3904,0.3884,0.3874,0.3848,0.3838,0.3808,0.3821,0.3811,0.3789,0.3776,0.3746,0.378,0.3742,0.3741,0.3748,0.3687,0.3679,0.363,0.3706,0.3705,0.3704,0,0.4007,0.3983,0.3927,0.3904,0.3891,0.3865,0.3837,0.3813,0.379,0.3784,0.3765,0.3765,0.373,0.3751,0.3703,0.3726,0.3711,0.3702,0.37,0.3696,0.372,0.3681,0.3614,0.3607,0.3693,0.3694,0.3695,0,0.3969,0.3922,0.3883,0.387,0.3842,0.3824,0.3811,0.379,0.3772,0.3747,0.3736,0.3707,0.3691,0.3669,0.3662,0.3678,0.3614,0.3635,0.3609,0.3609,0.3595,0.3596,0.3524,0.3585,0.3585,0.3585,0.3586,0,0.3912,0.3878,0.3865,0.3841,0.3803,0.3797,0.3759,0.3748,0.3729,0.3702,0.3704,0.3679,0.367,0.3644,0.3638,0.3599,0.3592,0.3587,0.3585,0.3586,0.3587,0.3576,0.3579,0.3583,0.3584,0.3584,0.3585,0,0.3863,0.3853,0.3811,0.3788,0.3781,0.3754,0.3734,0.3711,0.3702,0.3668,0.366,0.3645,0.3614,0.3604,0.3567,0.3563,0.3518,0.3519,0.3525,0.3525,0.35,0.3502,0.3418,0.3407,0.3476,0.3475,0.3474,0,0.3828,0.3801,0.3776,0.3758,0.3745,0.3717,0.3699,0.3692,0.3673,0.3645,0.3625,0.3595,0.357,0.352,0.3506,0.3478,0.3479,0.3451,0.3474,0.3476,0.3478,0.348,0.3477,0.3447,0.3446,0.3446,0.3445,0,0.3765,0.3762,0.3736,0.3708,0.3687,0.3664,0.3643,0.3628,0.3618,0.3597,0.3566,0.3546,0.3508,0.3478,0.3449,0.3436,0.3439,0.3438,0.3431,0.3431,0.3436,0.3433,0.3513,0.344,0.344,0.3441,0.3441,0.3441,0.3722,0.3699,0.3677,0.3648,0.3632,0.3612,0.3588,0.3577,0.355,0.3519,0.3517,0.3482,0.3461,0.3422,0.3407,0.3381,0.3388,0.3378,0.3375,0.3372,0.337,0.344,0.3375,0.3376,0.3376,0.3376,0.3376,0,0.366,0.3646,0.362,0.359,0.3567,0.3572,0.3549,0.3529,0.3499,0.3479,0.3454,0.3418,0.3389,0.3373,0.3343,0.3325,0.3325,0.3317,0.3319,0.3315,0.3365,0.3374,0.3317,0.3317,0.3317,0.3317,0.3317,0.3318,0.3625,0.3586,0.358,0.3533,0.352,0.3487,0.3473,0.3454,0.3438,0.3398,0.3373,0.3363,0.3344,0.3314,0.3287,0.3283,0.3272,0.3263,0.326,0.3306,0.3312,0.3318,0.3326,0.3261,0.3261,0.3213,0.3212,0.3212]}]]